Location: Bryzozowice
(50.3667°N, 18.9667°E)
Time: 09:57:04
(UTC+00:00)

NOSS 3-3 (C) - Pass Details

Date: 24 January 2020
Orbit: 843 x 1369 km, 63.4° (Epoch: 08 February)

Event Time Altitude Azimuth Distance (km) Brightness Sun altitude
Rises 18:03:11 0° 315° (NW) 3,886 7.8 -25.3°
Reaches altitude 10° 18:05:45 10° 318° (NW) 3,000 7.1 -25.7°
Maximum altitude 18:12:59 67° 41° (NE) 1,317 4.4 -26.8°
Enters shadow 18:14:29 56° 92° (E) 1,452 4.4 -27.1°
